Regional Weather Roundup
Issued by NWS Charleston, SC

Current Version | Previous Version | Graphics & Text | Print | Product List | Glossary On
Versions: 1 2 3 4 5 6 7 8 9 10 11 12 13 14 15 16 17 18 19 20 21 22 23 24 25 26 27 28 29 30 31 32 33 34 35 36 37 38 39 40 41 42 43 44 45 46 47 48 49 50
000
ASUS42 KCHS 270628
RWRCHS

REGIONAL WEATHER ROUNDUP
NATIONAL WEATHER SERVICE CHARLESTON SC
200 AM EDT WED JUL 27 2016

NOTE: "FAIR" INDICATES FEW OR NO CLOUDS BELOW 12,000 FEET WITH NO
SIGNIFICANT WEATHER AND/OR OBSTRUCTIONS TO VISIBILITY.

NOT ALL STATIONS ARE QUALITY CONTROLLED. USE DATA WITH CAUTION...
ESPECIALLY DEWPOINT OBSERVATIONS.

SCZ027-030-031-034>040-042>050-270700-
...SOUTHEAST SOUTH CAROLINA...

CITY           SKY/WX    TMP DP  RH WIND       PRES   REMARKS
N CHARLESTON   CLEAR     82  76  81 SW7       30.02F
6HR MIN TEMP:  82; 6HR MAX TEMP:  87;

WATERFRONT PRK   N/A     84  79  85 SW7       30.00F HX  96
MOUNT PLEASANT FAIR      82  79  89 SW6       30.02F HX  93
JOHNS ISLAND   FAIR      84  79  84 SW6G12    30.03S HX  96
PINOPOLIS        N/A     82  77  83 SW8       29.95S HX  91
MONCKS CORNER  FAIR      77  73  88 SW6       30.02S
SUMMERVILLE    FAIR      77  77 100 CALM      30.04S
BEAUFORT MCAS  CLEAR     83  76  79 SW9       30.04S HX  91
6HR MIN TEMP:  83; 6HR MAX TEMP:  88;

BEAUFORT ARPT  FAIR      82  77  83 SW9       30.03S HX  91
HILTON HEAD IS CLEAR     84  77  79 SW8       30.04F HX  94
WALTERBORO     CLEAR     81  81 100 SW7       30.04S HX  91
ALLENDALE      FAIR      81  75  83 CALM      30.04R

...SOUTHERN MIDLANDS AND PEE DEE...

CITY           SKY/WX    TMP DP  RH WIND       PRES   REMARKS
GEORGETOWN     FAIR      77  75  94 SW7       30.03S
KINGSTREE      FAIR      79  72  78 SW5       30.01S
ORANGEBURG     CLEAR     78  74  87 SW5       30.03S
6HR MIN TEMP:  78; 6HR MAX TEMP:  90;

BARNWELL       NOT AVBL
AIKEN          FAIR      79  70  73 SW6       30.07S
MANNING        FAIR      81  72  74 SW5       30.02S
COLUMBIA       CLEAR     83  72  69 SW8       30.00F
6HR MIN TEMP:  83; 6HR MAX TEMP:  94;

SUMTER         PTCLDY    81  73  76 SW8       29.99S
6HR MIN TEMP:  81; 6HR MAX TEMP:  91;

FLORENCE       CLEAR     82  74  76 SW8       30.00F
6HR MIN TEMP:  82; 6HR MAX TEMP:  91;

MYRTLE BEACH   CLEAR     81  70  69 W8        30.03R
N MYRTLE BEACH CLEAR     82  73  74 SW7       29.99F
6HR MIN TEMP:  82; 6HR MAX TEMP:  85;


$$

GAZ063-065-086>088-099>101-113>116-118-119-134>141-150-270700-
...SOUTHEAST GEORGIA...

CITY           SKY/WX    TMP DP  RH WIND       PRES   REMARKS
SAVANNAH ARPT  CLEAR     81  74  79 SW7       30.05S
6HR MIN TEMP:  81; 6HR MAX TEMP:  87;

HUNTER AAF     CLEAR     81  79  91 SW8       30.03R HX  90
6HR MIN TEMP:  81; 6HR MAX TEMP:  86;

FORT STEWART   CLEAR     79  73  81 S1        30.04S
6HR MIN TEMP:  79; 6HR MAX TEMP:  86;

STATESBORO     CLEAR     82  74  77 SW5       30.05S
SYLVANIA       NOT AVBL
CLAXTON        FAIR      80  75  86 S5        30.06R

...CSRA...CENTRAL AND FAR SOUTHEAST GEORGIA...

CITY           SKY/WX    TMP DP  RH WIND       PRES   REMARKS
THOMSON        NOT AVBL
AUGUSTA-BUSH   CLEAR     77  73  87 CALM      30.03S
6HR MIN TEMP:  76; 6HR MAX TEMP:  93;

AUGUSTA-DANIEL CLEAR     84  70  62 VRB5      30.04F
SWAINSBORO     FAIR      79  72  78 SW3       30.07S
VIDALIA        CLEAR     79  72  78 SW3       30.07S
EASTMAN        FAIR      79  67  67 CALM      30.09S
HAZLEHURST     FAIR      80  76  87 CALM      30.06F
ALMA           CLEAR     79  73  82 CALM      30.08R
6HR MIN TEMP:  79; 6HR MAX TEMP:  87;

WAYCROSS       CLEAR     80  77  91 CALM      30.08R
JESUP          FAIR      77  77 100 CALM      30.07S
BAXLEY         FAIR      81  79  94 CALM      30.07S
BRUNSWICK      CLEAR     81  77  89 SW5       30.08S
SAINT SIMONS   CLEAR     82  75  79 SW9       30.06F
6HR MIN TEMP:  82; 6HR MAX TEMP:  86;


$$

SCZ027-028-034-036>038-045-046-048>050-GAZ119-141-270700-
...LAKE AND SUPPLEMENTAL COASTAL OBSERVATIONS...

STATION/POSITION TIME  TEMP    WIND        PRES    WAVE   SWELL
                       AIR SEA DIR/SP/G            HT/PER HT/PER/DIR
                 (UTC) (F)     (DEG/KT/KT) (MB)    (FT/S) (FT/S/D)
WINYAH BAY       0500   81     250/  5     1016.0
LAKE MURRAY      NOT AVBL
ACE BASIN NERRS  0500   83        CALM     1017.0S
FORT PULASKI     0600   84 87  230/  8/ 11 1017.7F
SAPELO ISLAND    0600   83     230/  9     1018.0S

$$

ANZ835-935-AMZ111-154-330-350-352-354-370-450-454-472-270700-
...C-MAN AND BUOY OBSERVATIONS...

STATION/POSITION TIME  TEMP    WIND        PRES    WAVE   SWELL
                       AIR SEA DIR/SP/G            HT/PER HT/PER/DIR
                 (UTC) (F)     (DEG/KT/KT) (MB)    (FT/S) (FT/S/D)
BUOY 41004       0550   85 86  230/ 17/ 21 1016.1F   3/ 4   2/140/ 8
BUOY 41008       0550   86 87  190/ 14/ 16 1017.3S   3/ 4
FOLLY BEACH CMAN 0600   85     230/ 12/ 17 1016.9F
CAPERS NEARSHORE 0508   85 84  240/ 17/ 25 1016.3F
FRIPP NEARSHORE  0608   86 87  230/ 17/ 23 1016.3F


STATION/POSITION TIME  TEMP    WIND        PRES    WAVE   SWELL
                       AIR SEA DIR/SP/G            HT/PER HT/PER/DIR
                 (UTC) (F)     (DEG/KT/KT) (MB)    (FT/S) (FT/S/D)
5E ST. MARYS GA  0601      86                N/A     2/ 4
FRYING PAN BUOY  0600   85 85  240/ 16/ 19 1015.6F
BUOY 41025       0550   84 84  240/ 17/ 21 1014.2F   5/ 6
CAPE LOOKOUT NC  0600   83     240/  9/ 14 1015.0F
BUOY 41002       0550   84 84  240/ 14/ 16 1017.4F   3/ 7   2/140/ 7
BUOY 41010       0520   85 86  170/ 12/ 12 1018.7F
ST AUGUSTINE FL  0600   79 85  230/  6/  7 1019.3F


$$



USA.gov is the U.S. government's official web portal to all federal, state and local government web resources and services.